Time,TemperatureF,DewpointF,PressureIn,WindDirection,WindDirectionDegrees,WindSpeedMPH,WindSpeedGustMPH,Humidity,HourlyPrecipIn,Conditions,Clouds,dailyrainin,SoftwareType,DateUTC
2013-04-07 00:03:00,45.5,22.0,30.16,ESE,106,2.0,8.0,40,0.00,,,0.00,weatherlink.com 1.10,2013-04-07 04:03:00,
2013-04-07 00:18:00,45.2,23.0,30.16,SE,132,2.0,5.0,41,0.00,,,0.00,weatherlink.com 1.10,2013-04-07 04:18:00,
2013-04-07 00:33:00,45.1,24.0,30.16,East,86,6.0,6.0,43,0.00,,,0.00,weatherlink.com 1.10,2013-04-07 04:33:00,
2013-04-07 00:48:00,45.1,24.0,30.16,ESE,113,1.0,4.0,44,0.00,,,0.00,weatherlink.com 1.10,2013-04-07 04:48:00,
2013-04-07 01:03:00,45.3,24.0,30.16,ESE,113,1.0,5.0,43,0.00,,,0.00,weatherlink.com 1.10,2013-04-07 05:03:00,
2013-04-07 01:18:00,45.2,25.0,30.15,ESE,119,1.0,7.0,45,0.00,,,0.00,weatherlink.com 1.10,2013-04-07 05:18:00,
2013-04-07 01:33:00,45.3,25.0,30.15,SE,134,2.0,5.0,45,0.00,,,0.00,weatherlink.com 1.10,2013-04-07 05:33:00,
2013-04-07 01:48:00,45.5,26.0,30.15,SE,142,1.0,7.0,46,0.00,,,0.00,weatherlink.com 1.10,2013-04-07 05:48:00,
2013-04-07 04:03:00,43.4,28.0,30.13,SE,131,1.0,7.0,55,0.00,,,0.00,weatherlink.com 1.10,2013-04-07 08:03:00,
2013-04-07 04:48:00,42.8,29.0,30.11,NE,49,1.0,4.0,59,0.00,,,0.00,weatherlink.com 1.10,2013-04-07 08:48:00,
2013-04-07 05:03:00,42.6,29.0,30.11,ESE,117,1.0,4.0,60,0.00,,,0.00,weatherlink.com 1.10,2013-04-07 09:03:00,
2013-04-07 05:18:00,42.3,30.0,30.11,ESE,109,1.0,6.0,61,0.00,,,0.00,weatherlink.com 1.10,2013-04-07 09:18:00,
2013-04-07 05:33:00,42.0,29.0,30.11,East,96,0.0,6.0,61,0.00,,,0.00,weatherlink.com 1.10,2013-04-07 09:33:00,
2013-04-07 05:48:00,41.8,29.0,30.10,ENE,76,1.0,7.0,62,0.00,,,0.00,weatherlink.com 1.10,2013-04-07 09:48:00,
2013-04-07 06:03:00,41.7,29.0,30.11,South,182,0.0,5.0,60,0.00,,,0.00,weatherlink.com 1.10,2013-04-07 10:03:00,
2013-04-07 06:18:00,41.7,28.0,30.11,SSE,159,2.0,8.0,59,0.00,,,0.00,weatherlink.com 1.10,2013-04-07 10:18:00,
2013-04-07 06:33:00,41.4,28.0,30.11,ESE,117,3.0,6.0,59,0.00,,,0.00,weatherlink.com 1.10,2013-04-07 10:33:00,
2013-04-07 07:03:00,40.9,28.0,30.11,East,98,1.0,5.0,61,0.00,,,0.00,weatherlink.com 1.10,2013-04-07 11:03:00,
2013-04-07 07:18:00,40.9,28.0,30.11,ESE,109,4.0,7.0,61,0.00,,,0.00,weatherlink.com 1.10,2013-04-07 11:18:00,
2013-04-07 07:33:00,41.6,28.0,30.11,ENE,68,1.0,9.0,60,0.00,,,0.00,weatherlink.com 1.10,2013-04-07 11:33:00,
2013-04-07 08:18:00,45.2,29.0,30.10,SE,145,6.0,7.0,54,0.00,,,0.00,weatherlink.com 1.10,2013-04-07 12:18:00,
2013-04-07 08:33:00,46.1,30.0,30.10,East,80,5.0,7.0,54,0.00,,,0.00,weatherlink.com 1.10,2013-04-07 12:33:00,
2013-04-07 09:04:00,47.8,31.0,30.09,ESE,111,5.0,10.0,52,0.00,,,0.00,weatherlink.com 1.10,2013-04-07 13:04:00,
2013-04-07 09:34:00,50.1,31.0,30.08,ESE,123,2.0,7.0,49,0.00,,,0.00,weatherlink.com 1.10,2013-04-07 13:34:00,
2013-04-07 09:49:00,52.1,33.0,30.07,East,101,0.0,7.0,48,0.00,,,0.00,weatherlink.com 1.10,2013-04-07 13:49:00,
2013-04-07 10:19:00,54.2,34.0,30.06,East,92,2.0,8.0,47,0.00,,,0.00,weatherlink.com 1.10,2013-04-07 14:19:00,
2013-04-07 10:34:00,55.1,34.0,30.05,WSW,240,2.0,10.0,46,0.00,,,0.00,weatherlink.com 1.10,2013-04-07 14:34:00,
2013-04-07 10:49:00,56.8,35.0,30.05,SE,136,2.0,7.0,44,0.00,,,0.00,weatherlink.com 1.10,2013-04-07 14:49:00,
2013-04-07 11:19:00,57.7,36.0,30.03,ESE,103,2.0,7.0,44,0.00,,,0.00,weatherlink.com 1.10,2013-04-07 15:19:00,
2013-04-07 11:34:00,58.5,37.0,30.03,ENE,78,3.0,8.0,45,0.00,,,0.00,weatherlink.com 1.10,2013-04-07 15:34:00,
2013-04-07 11:49:00,60.0,38.0,30.02,East,83,3.0,9.0,45,0.00,,,0.00,weatherlink.com 1.10,2013-04-07 15:49:00,
2013-04-07 12:04:00,59.1,36.0,30.01,ESE,107,2.0,9.0,43,0.00,,,0.00,weatherlink.com 1.10,2013-04-07 16:04:00,
2013-04-07 12:19:00,60.6,37.0,30.00,East,92,2.0,8.0,42,0.00,,,0.00,weatherlink.com 1.10,2013-04-07 16:19:00,
2013-04-07 12:34:00,61.2,38.0,29.99,East,95,3.0,7.0,43,0.00,,,0.00,weatherlink.com 1.10,2013-04-07 16:34:00,
2013-04-07 12:49:00,63.4,39.0,29.98,West,264,1.0,7.0,41,0.00,,,0.00,weatherlink.com 1.10,2013-04-07 16:49:00,
2013-04-07 13:05:00,64.2,40.0,29.98,ESE,104,1.0,9.0,41,0.00,,,0.00,weatherlink.com 1.10,2013-04-07 17:05:00,
2013-04-07 13:20:00,64.5,40.0,29.97,East,90,3.0,9.0,40,0.00,,,0.00,weatherlink.com 1.10,2013-04-07 17:20:00,
2013-04-07 13:35:00,64.4,39.0,29.96,South,172,3.0,8.0,40,0.00,,,0.00,weatherlink.com 1.10,2013-04-07 17:35:00,
2013-04-07 13:50:00,64.0,39.0,29.95,ENE,72,3.0,7.0,40,0.00,,,0.00,weatherlink.com 1.10,2013-04-07 17:50:00,
2013-04-07 14:05:00,65.0,39.0,29.94,ESE,111,4.0,9.0,39,0.00,,,0.00,weatherlink.com 1.10,2013-04-07 18:05:00,
2013-04-07 14:20:00,66.5,42.0,29.93,ENE,77,3.0,10.0,41,0.00,,,0.00,weatherlink.com 1.10,2013-04-07 18:20:00,
2013-04-07 14:35:00,67.6,41.0,29.93,NNE,23,1.0,10.0,38,0.00,,,0.00,weatherlink.com 1.10,2013-04-07 18:35:00,
2013-04-07 14:50:00,67.6,41.0,29.92,East,88,2.0,8.0,38,0.00,,,0.00,weatherlink.com 1.10,2013-04-07 18:50:00,
2013-04-07 15:05:00,68.5,40.0,29.92,ENE,67,3.0,6.0,36,0.00,,,0.00,weatherlink.com 1.10,2013-04-07 19:05:00,
2013-04-07 15:20:00,67.8,40.0,29.91,SE,134,0.0,10.0,37,0.00,,,0.00,weatherlink.com 1.10,2013-04-07 19:20:00,
2013-04-07 15:35:00,67.6,41.0,29.90,ENE,61,2.0,10.0,38,0.00,,,0.00,weatherlink.com 1.10,2013-04-07 19:35:00,
2013-04-07 15:50:00,69.0,41.0,29.89,East,96,5.0,9.0,36,0.00,,,0.00,weatherlink.com 1.10,2013-04-07 19:50:00,
2013-04-07 16:05:00,69.5,41.0,29.89,ENE,75,1.0,7.0,35,0.00,,,0.00,weatherlink.com 1.10,2013-04-07 20:05:00,
2013-04-07 16:20:00,69.6,41.0,29.89,ESE,105,2.0,8.0,36,0.00,,,0.00,weatherlink.com 1.10,2013-04-07 20:20:00,
2013-04-07 16:35:00,69.3,41.0,29.88,East,92,1.0,9.0,36,0.00,,,0.00,weatherlink.com 1.10,2013-04-07 20:35:00,
2013-04-07 16:50:00,69.7,41.0,29.88,SE,138,3.0,7.0,36,0.00,,,0.00,weatherlink.com 1.10,2013-04-07 20:50:00,
2013-04-07 17:05:00,70.1,42.0,29.88,WNW,301,3.0,7.0,36,0.00,,,0.00,weatherlink.com 1.10,2013-04-07 21:05:00,
2013-04-07 17:20:00,70.2,41.0,29.88,WSW,254,0.0,7.0,35,0.00,,,0.00,weatherlink.com 1.10,2013-04-07 21:20:00,
2013-04-07 17:35:00,70.0,42.0,29.88,NE,54,3.0,7.0,36,0.00,,,0.00,weatherlink.com 1.10,2013-04-07 21:35:00,
2013-04-07 17:50:00,70.1,43.0,29.87,SSW,192,0.0,10.0,37,0.00,,,0.00,weatherlink.com 1.10,2013-04-07 21:50:00,
2013-04-07 18:05:00,70.3,41.0,29.87,East,86,0.0,6.0,35,0.00,,,0.00,weatherlink.com 1.10,2013-04-07 22:05:00,
2013-04-07 18:20:00,70.1,41.0,29.88,West,281,2.0,7.0,35,0.00,,,0.00,weatherlink.com 1.10,2013-04-07 22:20:00,
2013-04-07 18:35:00,69.0,41.0,29.87,East,94,1.0,8.0,36,0.00,,,0.00,weatherlink.com 1.10,2013-04-07 22:35:00,
2013-04-07 18:50:00,68.2,41.0,29.87,ESE,109,0.0,6.0,38,0.00,,,0.00,weatherlink.com 1.10,2013-04-07 22:50:00,
2013-04-07 19:05:00,67.7,41.0,29.87,NE,46,1.0,6.0,38,0.00,,,0.00,weatherlink.com 1.10,2013-04-07 23:05:00,
2013-04-07 19:20:00,67.1,41.0,29.87,NE,42,2.0,7.0,39,0.00,,,0.00,weatherlink.com 1.10,2013-04-07 23:20:00,
2013-04-07 19:35:00,66.7,42.0,29.88,WSW,248,2.0,5.0,40,0.00,,,0.00,weatherlink.com 1.10,2013-04-07 23:35:00,
2013-04-07 19:50:00,66.4,42.0,29.87,SW,232,5.0,5.0,41,0.00,,,0.00,weatherlink.com 1.10,2013-04-07 23:50:00,
2013-04-07 20:05:00,65.8,42.0,29.87,SSW,209,1.0,4.0,42,0.00,,,0.00,weatherlink.com 1.10,2013-04-08 00:05:00,
2013-04-07 20:20:00,65.2,42.0,29.88,North,5,1.0,3.0,43,0.00,,,0.00,weatherlink.com 1.10,2013-04-08 00:20:00,
2013-04-07 20:35:00,65.0,42.0,29.89,ESE,111,0.0,5.0,43,0.00,,,0.00,weatherlink.com 1.10,2013-04-08 00:35:00,
2013-04-07 20:50:00,65.2,42.0,29.89,SW,227,0.0,6.0,43,0.00,,,0.00,weatherlink.com 1.10,2013-04-08 00:50:00,
2013-04-07 21:05:00,65.4,42.0,29.90,ESE,103,1.0,4.0,43,0.00,,,0.00,weatherlink.com 1.10,2013-04-08 01:05:00,
2013-04-07 21:20:00,65.5,42.0,29.90,SSW,212,1.0,3.0,43,0.00,,,0.00,weatherlink.com 1.10,2013-04-08 01:20:00,
2013-04-07 21:35:00,65.3,42.0,29.91,SW,219,0.0,5.0,43,0.00,,,0.00,weatherlink.com 1.10,2013-04-08 01:35:00,
2013-04-07 21:50:00,65.0,42.0,29.91,SE,146,1.0,3.0,44,0.00,,,0.00,weatherlink.com 1.10,2013-04-08 01:50:00,
2013-04-07 22:05:00,64.7,42.0,29.91,SSW,202,4.0,5.0,44,0.00,,,0.00,weatherlink.com 1.10,2013-04-08 02:05:00,
2013-04-07 22:20:00,64.9,43.0,29.92,WNW,303,0.0,5.0,45,0.00,,,0.00,weatherlink.com 1.10,2013-04-08 02:20:00,
2013-04-07 22:35:00,64.3,44.0,29.93,WNW,301,2.0,5.0,48,0.00,,,0.00,weatherlink.com 1.10,2013-04-08 02:35:00,
2013-04-07 22:50:00,63.8,42.0,29.93,WNW,289,0.0,4.0,46,0.00,,,0.00,weatherlink.com 1.10,2013-04-08 02:50:00,
2013-04-07 23:05:00,63.5,43.0,29.93,WSW,244,0.0,1.0,48,0.00,,,0.00,weatherlink.com 1.10,2013-04-08 03:05:00,
2013-04-07 23:20:00,62.9,44.0,29.92,WSW,244,0.0,0.0,50,0.00,,,0.00,weatherlink.com 1.10,2013-04-08 03:20:00,
2013-04-07 23:36:00,61.6,43.0,29.92,WSW,244,0.0,1.0,51,0.00,,,0.00,weatherlink.com 1.10,2013-04-08 03:36:00,
2013-04-07 23:50:00,60.4,44.0,29.92,WSW,244,0.0,1.0,55,0.00,,,0.00,weatherlink.com 1.10,2013-04-08 03:50:00,